Weather History for KGGW - December, 2012

Change the Weather History Date:

Friday, December 7, 2012

  Actual Average Record
Temperature  
Mean Temperature 18 °F 19 °F  
Max Temperature 22 °F 28 °F 59 °F (1939)
Min Temperature 14 °F 9 °F -36 °F (1927)
Degree Days  
Heating Degree Days 47 46  
Month to date heating degree days 241 316  
Since 1 July heating degree days 2248 2309  
Cooling Degree Days 0 0  
Month to date cooling degree days 0 0  
Year to date cooling degree days 681 533  
Moisture  
Dew Point 17 °F    
Average Humidity 87    
Maximum Humidity 100    
Minimum Humidity 74    
Precipitation  
Precipitation 0.05 in 0.01 in 0.29 in (1945)
Month to date precipitation 0.09 0.08  
Year to date precipitation 12.65 11.34  
Snow  
Snow 0.40 in 0.30 in 2.80 in (1929)
Month to date snowfall 0.4 1.5  
Since 1 July snowfall 13.7 8.1  
Snow Depth T in    
Sea Level Pressure  
Sea Level Pressure 29.87 in    
Wind  
Wind Speed 12 mph (ESE)    
Max Wind Speed 20 mph    
Max Gust Speed 24 mph    
Visibility 5 miles    
Events Fog , Snow    
T = Trace of Precipitation, MM = Missing Value Source: NWS Daily Summary

Daily Weather History Graph

Daily Weather History Graph

Search for Another Location

Airport or City:

Trip Planner

Search our weather history database for the weather conditions in past years. The results will help you decide how hot, cold, wet, or windy it might be!

Date:

Astronomy

Dec. 07, 2012 Rise Set
Actual Time 7:43 AM MST 4:12 PM MST
Civil Twilight 7:07 AM MST 4:48 PM MST
Nautical Twilight 6:27 AM MST 5:28 PM MST
Astronomical Twilight 5:50 AM MST 6:06 PM MST
Moon 12:39 AM MST (12/7) 12:34 PM MST (12/7)
Length of Visible Light 9h 41m
Length of Day
8h 28m
Last Quarter, 38% of the Moon is Illuminated
Dec 7
Last Quarter
Dec 13
New
Dec 19
First Quarter
Dec 28
Full
Jan 4
Last Quarter

Hourly Weather History & Observations

Time (MST) Temp. Windchill Dew Point Humidity Pressure Visibility Wind Dir Wind Speed Gust Speed Precip Events Conditions
12:53 AM 19.9 °F 11.1 °F 15.1 °F 81% 29.96 in 10.0 mi ESE 6.9 mph - N/A   Clear
1:53 AM 19.0 °F 8.2 °F 14.0 °F 81% 29.96 in 10.0 mi East 9.2 mph - N/A   Clear
2:53 AM 19.0 °F 7.5 °F 15.1 °F 85% 29.96 in 10.0 mi East 10.4 mph - N/A   Clear
3:53 AM 19.0 °F 7.5 °F 15.1 °F 85% 29.96 in 10.0 mi East 10.4 mph - N/A   Clear
5:53 AM 15.1 °F 1.1 °F 12.9 °F 91% 29.97 in 10.0 mi East 12.7 mph - N/A   Clear
6:51 AM 14.0 °F -2.5 °F 12.2 °F 93% 29.87 in 10.0 mi East 17.3 mph - N/A   Mostly Cloudy
6:53 AM 14.0 °F -1.4 °F 12.0 °F 92% 29.99 in 9.0 mi East 15.0 mph - N/A   Mostly Cloudy
7:03 AM 15.8 °F 1.4 °F 12.2 °F 86% 29.87 in 6.0 mi East 13.8 mph - N/A   Overcast
7:53 AM 16.0 °F 1.1 °F 14.0 °F 92% 29.98 in 7.0 mi East 15.0 mph - N/A   Overcast
8:53 AM 18.0 °F 3.1 °F 16.0 °F 92% 30.00 in 4.0 mi ESE 16.1 mph - N/A   Overcast
9:53 AM 18.0 °F 3.1 °F 16.0 °F 92% 30.00 in 5.0 mi East 16.1 mph - N/A   Overcast
10:53 AM 19.0 °F 5.0 °F 17.1 °F 92% 29.99 in 5.0 mi East 15.0 mph - N/A   Overcast
11:34 AM 19.4 °F 4.1 °F 17.6 °F 93% 29.86 in 1.5 mi East 18.4 mph - 0.00 in Snow Light Snow
11:42 AM 19.4 °F 5.0 °F 17.6 °F 93% 29.86 in 1.0 mi East 16.1 mph - 0.00 in Snow Light Snow
11:53 AM 19.9 °F 4.8 °F 17.1 °F 89% 29.96 in 1.0 mi East 18.4 mph - 0.01 in Snow Light Snow
12:02 PM 19.4 °F 5.5 °F 17.6 °F 93% 29.84 in 1.5 mi East 15.0 mph - 0.00 in Snow Light Snow
12:10 PM 19.4 °F 4.5 °F 17.6 °F 93% 29.85 in 3.0 mi East 17.3 mph - 0.00 in Snow Light Snow
12:24 PM 19.4 °F 5.5 °F 17.6 °F 93% 29.85 in 1.8 mi ESE 15.0 mph - 0.00 in Snow Light Snow
12:27 PM 19.4 °F 6.6 °F 17.6 °F 93% 29.85 in 1.0 mi ESE 12.7 mph - 0.00 in Snow Light Snow
12:32 PM 19.4 °F 7.9 °F 17.6 °F 93% 29.86 in 0.5 mi SE 10.4 mph - 0.00 in Fog , Snow Snow
12:41 PM 19.4 °F 6.6 °F 17.6 °F 93% 29.85 in 0.2 mi SE 12.7 mph - 0.01 in Fog , Snow Snow
12:53 PM 19.0 °F 6.1 °F 17.1 °F 92% 29.96 in 0.2 mi ESE 12.7 mph - 0.02 in Fog , Snow Snow
1:02 PM 19.4 °F 6.6 °F 17.6 °F 93% 29.84 in 0.5 mi ESE 12.7 mph - 0.00 in Fog , Snow Light Snow
1:17 PM 19.4 °F 6.6 °F 17.6 °F 93% 29.84 in 0.2 mi East 12.7 mph - 0.02 in Fog , Snow Snow
1:20 PM 19.4 °F 6.0 °F 17.6 °F 93% 29.83 in 0.5 mi ESE 13.8 mph - 0.02 in Fog , Snow Snow
1:34 PM 19.4 °F 5.5 °F 17.6 °F 93% 29.83 in 1.5 mi ESE 15.0 mph - 0.02 in Snow Light Snow
1:37 PM 19.4 °F 6.0 °F 17.6 °F 93% 29.83 in 2.0 mi ESE 13.8 mph - 0.02 in Snow Light Snow
1:48 PM 19.4 °F 5.0 °F 17.6 °F 93% 29.82 in 3.0 mi ESE 16.1 mph - 0.02 in Snow Light Snow
1:53 PM 19.9 °F 6.7 °F 18.0 °F 92% 29.94 in 4.0 mi ESE 13.8 mph - 0.02 in Snow Light Snow
2:53 PM 19.9 °F 7.3 °F 17.1 °F 89% 29.93 in 9.0 mi ESE 12.7 mph - 0.00 in   Mostly Cloudy
3:01 PM 19.4 °F 6.6 °F 17.6 °F 93% 29.82 in 10.0 mi ESE 12.7 mph - N/A   Mostly Cloudy
3:39 PM 19.4 °F 6.6 °F 15.8 °F 86% 29.82 in 10.0 mi ESE 12.7 mph - N/A   Overcast
3:49 PM 19.4 °F 6.6 °F 15.8 °F 86% 29.82 in 10.0 mi East 12.7 mph - N/A   Overcast
3:53 PM 19.9 °F 7.9 °F 16.0 °F 85% 29.94 in 10.0 mi East 11.5 mph - N/A   Overcast
4:53 PM 19.0 °F 8.2 °F 16.0 °F 88% 29.93 in 10.0 mi East 9.2 mph - N/A   Overcast
5:53 PM 19.4 °F 8.6 °F 15.8 °F 86% 29.80 in 10.0 mi East 9.2 mph - N/A   Overcast
6:53 PM 19.0 °F 9.0 °F 16.0 °F 88% 29.91 in 10.0 mi East 8.1 mph - N/A   Overcast
7:53 PM 19.0 °F 8.2 °F 17.1 °F 92% 29.88 in 9.0 mi East 9.2 mph - N/A   Overcast
8:42 PM 19.4 °F 6.6 °F 17.6 °F 93% 29.74 in 2.5 mi East 12.7 mph - N/A   Overcast
8:48 PM 19.4 °F 7.9 °F 17.6 °F 93% 29.74 in 1.2 mi East 10.4 mph - N/A   Overcast
8:53 PM 19.9 °F 8.6 °F 19.0 °F 96% 29.86 in 1.0 mi ESE 10.4 mph - N/A   Overcast
9:02 PM 19.4 °F 6.6 °F 19.4 °F 100% 29.73 in 0.8 mi ESE 12.7 mph - N/A   Overcast
9:53 PM 19.9 °F 6.7 °F 19.0 °F 96% 29.83 in 1.2 mi East 13.8 mph - N/A   Overcast
10:12 PM 19.4 °F 6.0 °F 19.4 °F 100% 29.71 in 1.5 mi East 13.8 mph - N/A   Overcast
10:23 PM 19.4 °F 5.5 °F 19.4 °F 100% 29.71 in 1.2 mi East 15.0 mph - N/A   Overcast
10:44 PM 21.2 °F 8.9 °F 19.4 °F 93% 29.70 in 0.8 mi East 12.7 mph - N/A   Overcast
10:53 PM 21.0 °F 7.6 °F 19.9 °F 96% 29.81 in 0.8 mi East 15.0 mph - N/A   Mist
11:53 PM 21.9 °F 9.8 °F 19.9 °F 92% 29.79 in 0.5 mi East 12.7 mph - N/A Fog Light Freezing Fog